Temp
67 69 74 77 77 76 76 76 76 75 76 76 76 76 76 76 76 76 76 76 76 77 78 78 78 78 78 77 76 76 76 76 76 77 77 76 76 75 75 74 73 72 74
68 70 73 75 77 76 76 75 75 75 76 76 76 76 76 76 75 75 75 76 76 77 78 78 78 78 77 76 76 76 76 75 75 74 74 75 75 75 75 74 73 73 74
69 70 71 74 75 76 75 75 75 75 75 76 76 76 76 76 76 76 75 75 76 77 78 78 77 77 76 75 75 75 75 73 73 73 73 71 72 75 75 74 73 73 73
70 70 70 72 74 75 75 74 74 75 75 76 76 76 76 75 75 76 76 75 76 77 78 77 76 76 75 74 74 74 73 73 72 71 67 70 72 74 74 74 73 73 73
69 71 70 71 74 74 75 74 74 74 75 75 75 76 76 76 75 75 75 75 76 77 77 77 77 75 74 74 74 74 73 72 69 68 67 68 70 74 74 74 73 73 71
67 69 70 72 74 74 75 74 74 74 75 75 75 75 75 75 75 75 75 75 75 76 77 77 76 75 74 73 73 73 72 71 68 66 67 71 71 74 74 73 72 71 71
67 68 70 71 73 74 74 74 73 73 74 74 75 75 75 75 74 74 73 74 74 75 75 75 75 74 73 73 73 72 71 69 66 67 66 70 71 74 73 73 73 72 72
66 67 68 66 67 69 72 73 73 73 73 73 73 74 74 74 74 73 74 74 74 73 74 74 74 73 72 72 72 71 68 67 67 67 68 69 71 73 73 72 71 71 71
64 65 65 66 67 65 67 66 69 72 72 72 72 73 72 72 72 72 72 73 74 74 74 73 72 72 72 72 71 69 66 65 66 67 68 69 71 73 73 71 71 70 70
59 58 59 61 64 65 67 65 64 66 68 70 70 69 68 68 68 68 68 70 72 73 73 72 71 71 71 71 69 66 65 64 63 66 68 69 71 73 72 71 70 70 70
59 55 56 56 58 60 65 65 64 64 64 65 66 65 64 68 67 66 66 68 71 71 72 72 70 70 68 67 66 64 64 63 64 66 67 67 71 73 72 71 70 70 69
55 55 53 53 54 57 63 60 63 66 66 66 67 68 67 66 67 67 64 64 67 67 69 71 70 68 65 62 64 63 64 62 64 65 67 68 71 72 72 71 70 69 69
50 54 54 53 53 53 54 54 55 59 60 58 59 60 66 66 65 65 65 64 66 63 66 68 67 65 63 63 64 63 62 61 64 64 65 67 70 72 71 70 70 69 68
49 50 53 53 53 53 51 51 52 54 57 59 59 58 55 62 64 65 64 64 64 65 63 63 64 62 62 65 63 63 63 61 62 63 64 64 69 71 71 71 70 69 68
50 51 54 53 52 54 53 51 51 51 53 56 59 61 59 57 58 63 64 63 64 64 64 64 62 61 61 64 65 63 63 61 62 62 64 60 65 70 71 71 70 69 68
52 52 54 53 52 52 51 51 50 50 51 53 55 58 61 59 59 57 62 63 63 64 64 65 62 61 61 62 63 63 63 61 61 62 64 63 64 68 70 71 70 69 69
51 51 51 53 53 51 50 50 50 50 52 50 52 56 58 61 59 59 56 58 62 64 65 64 63 61 59 61 62 62 62 61 60 61 62 63 63 63 67 69 69 69 69
49 50 51 54 51 51 50 51 51 51 49 49 50 51 54 57 60 59 57 56 61 63 62 63 62 59 59 59 60 61 61 61 61 61 62 63 63 64 64 67 68 68 69
48 48 48 49 48 49 49 50 48 48 47 48 48 49 51 54 56 57 57 56 57 59 62 61 61 61 58 59 59 60 59 59 60 60 61 62 62 63 64 64 64 65 67
45 46 46 47 48 47 46 44 44 45 47 46 46 48 50 52 54 56 54 55 55 53 54 61 60 60 60 59 54 49 47 47 48 50 58 60 61 62 63 63 62 63 64
44 44 45 46 46 44 44 43 43 43 44 45 45 47 50 51 51 51 51 53 54 52 52 52 60 59 58 57 46 44 42 43 44 44 45 46 52 59 61 61 62 63 62
42 43 43 45 45 44 43 43 41 41 42 43 44 45 47 48 49 50 50 51 52 52 52 52 49 58 58 51 53 48 42 42 40 41 42 42 43 43 52 58 60 60 61
39 39 43 43 42 42 41 41 40 40 39 38 40 41 44 46 47 48 49 50 51 51 51 51 51 49 55 50 59 53 43 48 40 38 38 39 40 40 41 46 56 58 59
41 39 39 40 40 40 39 37 35 34 33 36 38 39 41 43 44 46 48 50 50 51 51 51 52 51 51 51 54 57 50 45 48 38 36 36 37 38 39 41 44 50 56
39 36 37 37 37 37 37 36 35 33 34 36 36 36 37 40 42 44 46 47 48 49 50 51 51 50 51 52 54 54 49 43 47 42 35 34 35 36 38 39 40 42 47
37 37 36 35 34 35 35 35 33 32 33 34 35 34 35 36 38 41 43 44 46 47 48 49 49 49 50 51 54 58 54 50 49 47 40 39 40 34 37 38 38 39 41
MSLP
1010.96 1010.61 1010.49 1010.71 1011.11 1011.48 1011.58 1011.83 1011.90 1012.16 1012.32 1012.55 1012.55 1012.51 1012.63 1012.77 1012.89 1013.06 1013.32 1013.35 1013.34 1013.39 1013.51 1013.70 1014.18 1014.57 1014.87 1015.23 1015.55 1015.89 1016.08 1016.34 1016.49 1016.58 1016.72 1017.02 1017.26 1017.58 1017.80 1018.11 1018.29 1018.52 1018.78
1010.78 1010.62 1010.65 1010.71 1010.85 1011.38 1011.62 1011.81 1011.99 1012.26 1012.42 1012.53 1012.62 1012.75 1012.78 1012.98 1013.12 1013.23 1013.35 1013.55 1013.61 1013.58 1013.65 1013.75 1013.92 1014.33 1014.73 1015.09 1015.51 1015.78 1016.06 1016.31 1016.56 1016.79 1017.02 1017.26 1017.54 1017.84 1018.08 1018.30 1018.75 1018.97 1019.20
1010.40 1010.41 1010.67 1010.76 1011.00 1011.20 1011.55 1011.76 1012.09 1012.28 1012.40 1012.56 1012.68 1012.75 1012.95 1013.06 1013.29 1013.39 1013.50 1013.61 1013.73 1013.84 1013.79 1013.78 1014.01 1014.29 1014.63 1015.00 1015.39 1015.80 1016.09 1016.41 1016.64 1016.94 1017.25 1017.54 1017.80 1017.98 1018.29 1018.59 1019.06 1019.28 1019.48
1010.37 1010.29 1010.54 1010.81 1011.07 1011.24 1011.41 1011.74 1011.99 1012.25 1012.33 1012.43 1012.58 1012.70 1012.85 1013.20 1013.18 1013.55 1013.64 1013.75 1013.74 1013.85 1013.94 1014.05 1014.25 1014.47 1014.73 1015.12 1015.37 1015.68 1016.06 1016.40 1016.77 1017.11 1017.47 1017.69 1017.91 1018.06 1018.42 1018.89 1019.25 1019.47 1019.70
1010.75 1010.70 1010.70 1010.98 1011.07 1011.25 1011.46 1011.66 1011.97 1012.21 1012.31 1012.27 1012.53 1012.56 1012.63 1012.79 1013.20 1013.18 1013.66 1013.84 1013.84 1013.75 1014.00 1014.26 1014.38 1014.69 1014.97 1015.21 1015.50 1015.83 1016.07 1016.29 1016.77 1017.23 1017.49 1017.83 1018.08 1018.14 1018.60 1019.06 1019.39 1019.71 1019.98
1011.02 1010.95 1010.94 1010.89 1010.87 1011.14 1011.29 1011.60 1011.88 1012.07 1012.22 1012.28 1012.30 1012.42 1012.67 1012.44 1012.79 1013.02 1013.22 1013.59 1013.93 1013.86 1013.85 1014.34 1014.60 1014.84 1015.15 1015.37 1015.52 1015.85 1016.11 1016.44 1016.80 1017.11 1017.38 1017.74 1018.05 1018.22 1018.77 1019.24 1019.52 1019.96 1020.18
1011.23 1011.14 1011.09 1011.14 1011.05 1010.97 1011.19 1011.39 1011.66 1011.90 1012.14 1012.21 1012.22 1012.25 1012.26 1012.42 1012.56 1012.73 1012.96 1013.22 1013.65 1013.75 1013.90 1014.12 1014.59 1015.06 1015.33 1015.61 1015.73 1015.86 1016.17 1016.56 1016.88 1017.16 1017.45 1017.64 1018.06 1018.37 1018.94 1019.34 1019.69 1020.06 1020.31
1011.57 1011.54 1011.47 1011.49 1011.37 1011.37 1011.22 1011.26 1011.39 1011.61 1011.85 1011.95 1012.07 1012.08 1012.03 1012.14 1012.23 1012.54 1012.62 1012.81 1013.33 1013.67 1013.87 1014.03 1014.37 1014.89 1015.37 1015.57 1015.85 1016.06 1016.24 1016.70 1016.97 1017.24 1017.53 1017.91 1018.08 1018.48 1019.03 1019.49 1019.92 1020.27 1020.56
1011.87 1011.88 1011.83 1011.72 1011.52 1011.42 1011.51 1011.71 1011.58 1011.28 1011.40 1011.61 1011.72 1011.84 1011.91 1012.03 1012.04 1012.22 1012.57 1012.60 1012.84 1013.40 1013.65 1014.00 1014.37 1014.72 1015.09 1015.55 1015.80 1016.17 1016.59 1016.82 1016.98 1017.29 1017.54 1017.95 1018.22 1018.46 1019.04 1019.65 1020.10 1020.43 1020.70
1012.56 1012.54 1012.36 1012.13 1011.93 1011.83 1011.56 1011.56 1011.72 1011.75 1011.53 1011.25 1011.37 1011.51 1011.58 1011.67 1011.88 1012.01 1012.34 1012.60 1012.68 1013.02 1013.41 1013.66 1014.08 1014.62 1014.85 1015.22 1015.67 1016.03 1016.70 1017.03 1017.23 1017.55 1017.81 1018.04 1018.20 1018.53 1019.00 1019.54 1020.11 1020.50 1020.77
1012.90 1012.93 1012.87 1012.73 1012.53 1012.28 1011.96 1011.92 1011.78 1011.68 1011.61 1011.49 1011.39 1011.21 1011.35 1011.55 1011.53 1011.77 1012.13 1012.43 1012.67 1012.81 1013.11 1013.49 1013.83 1014.18 1014.73 1015.24 1015.62 1016.00 1016.27 1016.95 1017.15 1017.38 1017.64 1018.09 1018.22 1018.58 1019.06 1019.46 1020.09 1020.54 1020.87
1013.20 1013.37 1013.23 1012.99 1012.79 1012.65 1012.33 1012.35 1012.12 1011.81 1011.84 1011.07 1010.41 1011.13 1011.02 1011.18 1011.42 1011.36 1011.69 1012.11 1012.31 1012.64 1012.81 1013.25 1013.60 1013.97 1014.39 1015.18 1015.65 1015.89 1016.24 1016.56 1016.91 1017.09 1017.28 1017.70 1017.94 1018.55 1019.08 1019.22 1019.76 1020.46 1020.89
1013.39 1013.50 1013.41 1013.27 1013.10 1013.00 1012.85 1012.75 1012.59 1012.39 1012.30 1012.25 1012.10 1011.64 1010.04 1010.65 1011.12 1011.16 1011.31 1011.71 1011.94 1012.32 1012.61 1012.91 1013.30 1013.90 1014.24 1014.76 1015.34 1015.80 1016.19 1016.41 1016.63 1016.87 1017.14 1017.48 1017.71 1018.14 1019.01 1019.41 1019.68 1020.28 1020.83
1013.31 1013.28 1013.33 1013.28 1013.18 1013.09 1013.05 1012.96 1012.73 1012.56 1012.36 1012.22 1012.04 1011.83 1011.48 1010.72 1010.84 1010.92 1011.27 1011.36 1011.64 1011.80 1012.29 1012.57 1012.97 1013.56 1014.10 1014.42 1015.02 1015.51 1015.92 1016.18 1016.43 1016.70 1016.87 1017.21 1017.59 1017.84 1018.28 1019.20 1019.71 1020.19 1020.76
1013.31 1013.17 1013.14 1013.21 1013.22 1013.09 1013.01 1012.89 1012.77 1012.70 1012.55 1012.36 1012.10 1011.95 1011.98 1012.08 1011.54 1010.74 1010.86 1011.11 1011.30 1011.51 1011.93 1012.24 1012.62 1013.23 1013.88 1014.19 1014.51 1015.04 1015.56 1016.21 1016.38 1016.26 1016.69 1016.94 1017.25 1017.72 1018.11 1018.56 1019.43 1019.95 1020.56
1013.42 1013.46 1013.43 1013.46 1013.47 1013.27 1013.16 1013.07 1012.99 1012.81 1012.62 1012.39 1012.04 1011.79 1011.65 1011.77 1011.47 1011.33 1011.04 1010.38 1010.93 1011.02 1011.27 1011.50 1012.03 1012.70 1013.43 1013.83 1014.33 1014.63 1014.94 1015.65 1016.15 1015.91 1016.20 1016.73 1016.98 1017.37 1017.88 1018.33 1019.06 1019.56 1020.10
1013.94 1013.92 1013.85 1013.62 1013.56 1013.47 1013.40 1013.12 1012.84 1012.59 1012.31 1012.21 1012.00 1011.75 1011.41 1011.10 1010.87 1011.04 1011.81 1011.50 1010.06 1010.25 1010.72 1011.04 1011.26 1012.02 1012.85 1013.30 1013.69 1014.21 1014.57 1015.09 1015.55 1015.93 1016.11 1016.21 1016.58 1017.04 1017.25 1017.71 1018.42 1019.04 1019.50
1013.80 1013.98 1013.70 1013.63 1013.50 1013.33 1013.18 1012.94 1012.63 1012.27 1012.08 1011.81 1011.57 1011.51 1011.37 1011.13 1010.85 1010.88 1010.96 1010.98 1010.85 1009.57 1010.08 1010.66 1010.65 1011.47 1012.22 1012.71 1013.06 1013.36 1013.84 1014.34 1014.72 1015.42 1015.60 1015.89 1016.30 1016.54 1017.01 1017.12 1017.70 1018.48 1019.07
1014.31 1014.29 1014.22 1013.95 1013.64 1013.46 1013.21 1012.82 1012.44 1012.04 1011.89 1011.60 1011.30 1011.01 1010.85 1010.70 1010.55 1010.28 1010.14 1010.45 1010.63 1010.36 1009.21 1009.56 1009.75 1010.20 1011.12 1012.10 1012.63 1012.83 1013.28 1013.82 1014.40 1014.64 1015.18 1015.46 1015.80 1016.07 1016.50 1016.99 1017.33 1017.98 1018.52
1014.20 1014.09 1014.08 1013.82 1013.64 1013.41 1013.12 1012.72 1012.29 1011.85 1011.46 1011.23 1011.02 1010.70 1010.43 1010.29 1010.07 1009.80 1009.67 1009.58 1009.74 1010.07 1009.98 1008.53 1008.70 1009.02 1009.94 1010.93 1012.24 1013.07 1013.42 1013.55 1014.25 1014.57 1014.96 1014.85 1015.11 1015.35 1015.73 1016.40 1016.99 1017.50 1017.94
1014.13 1013.87 1013.69 1013.50 1013.42 1013.47 1013.15 1012.78 1012.32 1011.69 1011.30 1010.95 1010.70 1010.37 1010.07 1009.89 1009.71 1009.63 1009.40 1009.23 1009.15 1008.90 1009.52 1009.39 1007.79 1007.79 1008.74 1010.09 1012.16 1013.48 1014.19 1014.05 1014.18 1014.56 1015.08 1015.47 1014.74 1014.46 1014.92 1015.56 1016.24 1016.79 1017.42
1013.95 1013.88 1013.73 1013.59 1013.47 1013.30 1013.03 1012.59 1012.24 1011.67 1011.15 1010.74 1010.33 1009.93 1009.65 1009.46 1009.21 1009.02 1008.88 1008.67 1008.51 1008.46 1008.27 1008.65 1008.60 1007.05 1007.50 1008.77 1009.89 1012.08 1013.75 1014.47 1014.72 1014.43 1014.91 1015.39 1014.81 1015.04 1015.20 1014.86 1015.41 1016.09 1016.67
1014.11 1013.80 1013.66 1013.53 1013.39 1013.15 1012.85 1012.22 1011.80 1011.42 1010.89 1010.41 1009.88 1009.35 1009.12 1008.84 1008.57 1008.29 1008.01 1007.75 1007.50 1007.30 1007.07 1007.06 1007.55 1008.31 1005.94 1007.47 1007.79 1009.23 1011.57 1011.78 1013.74 1014.70 1015.04 1015.21 1015.44 1015.44 1015.78 1015.20 1014.52 1015.48 1015.98
1014.19 1014.02 1013.89 1013.57 1013.33 1013.09 1012.69 1012.15 1011.74 1011.19 1010.54 1010.17 1009.70 1009.09 1008.68 1008.41 1008.02 1007.68 1007.19 1006.90 1006.56 1006.34 1006.02 1006.07 1006.20 1007.01 1006.93 1005.90 1007.20 1007.37 1008.13 1009.50 1011.36 1014.01 1014.90 1015.52 1015.15 1015.52 1015.78 1015.48 1015.51 1014.91 1015.10
1014.26 1014.13 1013.91 1013.42 1013.06 1012.77 1012.34 1012.04 1011.59 1010.92 1010.35 1009.64 1009.18 1008.64 1008.22 1007.77 1007.40 1007.04 1006.59 1006.25 1005.77 1005.44 1005.22 1005.24 1005.24 1005.27 1005.64 1006.29 1005.11 1005.92 1007.14 1008.88 1009.00 1010.63 1012.88 1014.64 1015.27 1015.00 1014.86 1015.93 1015.66 1015.76 1014.72
1014.15 1014.03 1013.72 1013.31 1012.85 1012.32 1011.96 1011.57 1011.19 1010.50 1009.77 1009.09 1008.47 1007.99 1007.49 1007.09 1006.68 1006.19 1005.87 1005.51 1005.26 1004.89 1004.63 1004.50 1004.43 1004.38 1005.22 1005.66 1005.31 1004.12 1004.58 1006.07 1006.90 1008.51 1009.81 1012.24 1013.54 1014.73 1014.71 1015.30 1015.24 1015.08 1015.29
Wind_Speed
4 6 10 10 11 13 14 13 13 11 11 10 11 13 14 15 15 15 14 15 16 16 15 15 16 15 14 13 15 15 14 13 13 13 12 14 17 20 22 19 18 14 19
2 5 10 11 10 10 12 12 12 12 12 11 11 12 13 13 14 14 14 14 14 15 15 14 18 17 15 15 16 15 15 12 12 11 11 14 19 21 22 21 18 16 18
6 6 7 10 12 12 12 12 12 12 12 11 11 11 12 12 13 14 14 13 14 15 16 16 17 18 15 14 17 15 13 11 11 11 12 8 11 21 21 21 19 18 19
3 6 6 9 10 11 11 13 14 14 14 13 13 12 12 12 13 13 14 14 14 15 15 15 16 16 14 14 16 16 16 14 12 12 5 7 10 21 21 20 19 19 18
1 3 5 8 9 10 9 13 15 15 14 14 14 14 15 15 14 14 15 15 16 17 17 16 14 16 16 15 16 16 16 16 14 8 7 6 7 17 20 19 19 18 17
1 2 5 12 13 10 9 12 16 15 15 14 15 15 15 16 16 15 16 15 16 15 16 14 16 14 14 15 15 16 18 18 13 7 8 11 8 19 20 19 18 19 16
3 2 4 9 11 13 12 13 15 15 15 15 14 15 15 15 14 17 17 17 14 14 15 18 15 14 13 14 15 17 17 15 8 8 7 9 11 21 19 19 18 17 17
5 5 6 8 10 10 12 14 14 14 15 16 15 16 16 15 16 16 17 17 15 15 15 15 17 15 13 14 15 15 16 13 8 9 9 8 17 20 20 18 17 17 17
8 7 6 6 7 6 5 8 12 15 16 16 15 14 14 15 15 16 16 17 17 16 15 15 15 16 15 14 15 13 14 11 9 7 10 8 17 21 21 19 19 18 18
7 7 7 7 7 7 7 7 5 10 13 14 14 13 13 14 14 14 13 15 16 15 15 15 18 16 16 15 13 16 14 12 6 7 7 8 19 22 21 21 19 18 18
4 7 6 7 7 7 5 7 7 7 11 13 12 13 12 8 9 9 10 12 15 15 14 15 17 17 14 10 14 15 15 5 6 6 6 16 20 22 22 22 20 18 18
5 5 6 6 6 6 4 6 5 5 6 8 8 9 8 8 8 9 9 13 15 14 14 16 18 16 13 5 6 12 6 6 6 7 7 19 22 23 23 24 22 19 18
3 3 5 5 5 6 5 4 3 2 3 4 9 12 7 6 6 7 6 7 8 10 7 11 11 8 8 7 9 8 6 5 5 5 10 17 23 24 23 22 22 21 20
2 2 2 2 3 4 3 3 3 4 4 3 3 4 7 7 5 6 5 7 7 6 7 7 6 7 9 11 10 11 9 6 4 4 10 17 22 26 26 23 23 21 21
4 4 3 2 2 3 4 3 4 3 3 4 3 2 2 0 8 5 5 6 7 7 8 8 7 8 9 12 13 12 11 10 8 6 7 14 20 24 27 25 25 23 22
5 5 4 6 6 6 5 5 4 4 4 3 3 3 2 3 1 3 8 6 7 8 8 9 9 9 9 10 12 12 12 10 10 9 9 11 18 23 24 26 25 25 24
3 5 6 6 6 7 7 6 5 5 4 4 4 5 6 3 2 1 4 8 7 8 11 10 10 9 9 9 12 11 11 13 11 11 9 10 12 19 25 26 27 27 27
6 7 7 7 9 8 7 7 7 6 5 5 4 4 6 6 6 5 5 4 9 10 9 9 11 10 10 11 10 11 10 12 13 13 11 11 11 11 16 25 26 27 27
4 5 6 7 7 8 8 7 7 8 5 5 5 4 6 8 8 7 6 7 5 7 12 11 11 13 11 11 10 10 7 7 10 9 13 14 15 13 11 19 23 25 26
3 3 4 5 6 7 6 5 5 6 7 6 5 5 6 6 8 9 5 6 8 7 7 13 16 14 12 12 8 5 3 4 2 2 8 12 13 15 14 14 13 13 25
2 5 7 10 10 5 7 9 9 9 9 8 6 8 10 9 8 8 7 8 6 8 11 9 13 18 13 10 7 2 2 2 4 3 2 4 4 12 15 13 11 11 12
7 8 7 11 12 9 8 9 8 9 9 10 10 11 12 13 13 12 12 11 10 9 10 10 9 10 12 15 10 7 4 2 1 2 2 1 1 2 7 14 15 14 13
8 7 11 13 14 11 13 9 8 9 9 9 8 8 7 9 12 14 15 13 12 10 10 12 11 14 11 11 19 8 5 7 4 1 3 3 2 1 1 4 11 15 15
10 7 7 12 14 12 12 11 12 11 13 10 11 10 11 12 14 15 15 14 13 11 13 12 12 15 11 15 13 15 2 8 6 3 1 2 3 3 2 2 4 7 13
7 6 7 12 13 13 12 11 10 13 11 11 11 14 13 12 13 14 13 12 10 8 9 10 11 9 12 10 16 15 9 2 3 5 5 4 2 4 4 3 3 3 7
6 10 11 12 13 13 13 14 14 16 15 13 13 13 11 10 10 14 15 14 14 13 13 10 9 12 13 14 12 17 17 14 12 7 4 7 9 2 4 6 4 4 3
Wind_Direction
247 201 182 178 183 180 163 160 153 153 153 152 149 148 148 150 152 154 157 157 155 156 154 150 149 154 151 149 148 145 143 143 141 140 135 125 130 126 114 103 93 96 98
264 185 181 174 182 196 176 171 166 166 165 164 162 159 160 162 163 165 167 168 170 168 167 163 158 158 153 156 156 153 148 146 141 141 126 137 131 125 114 107 109 107 106
198 174 179 178 182 200 195 177 176 179 177 176 176 172 172 174 176 177 176 172 175 178 175 170 162 161 155 146 147 152 145 138 137 139 135 131 132 125 116 109 114 113 111
199 161 168 183 192 205 192 190 181 188 187 185 186 187 186 187 184 186 182 177 174 177 166 166 158 157 154 149 148 146 149 137 132 120 122 124 136 125 117 121 122 119 114
148 154 160 191 200 212 199 195 199 191 193 191 197 195 195 195 194 187 186 189 188 177 178 179 171 160 154 162 155 152 147 137 124 120 116 120 129 126 125 128 125 116 114
219 193 191 203 198 211 214 196 208 203 199 198 200 203 205 201 201 195 192 199 193 188 169 167 171 163 164 172 167 161 152 142 130 128 125 132 135 130 128 129 123 124 121
275 292 286 247 225 210 214 206 212 212 209 207 209 210 205 209 206 195 202 188 199 193 184 173 163 168 179 176 175 165 149 141 135 132 124 128 136 134 138 138 133 131 129
33 5 342 341 327 308 242 217 210 212 214 217 217 222 210 209 200 211 192 184 184 186 183 174 166 169 179 178 184 167 142 141 137 131 128 131 140 140 141 139 142 139 135
39 45 29 21 5 347 352 332 266 218 216 221 221 226 221 215 201 193 195 187 184 189 187 182 172 172 179 188 188 171 150 146 142 137 139 141 149 146 143 143 143 141 138
34 30 18 19 28 356 344 333 315 289 255 224 221 218 216 213 211 200 192 194 194 193 190 183 174 178 182 195 198 156 155 151 140 143 149 150 157 152 151 146 147 149 145
22 30 25 17 12 5 5 345 322 297 272 269 242 224 213 219 209 204 203 196 200 197 198 187 182 180 184 182 158 158 148 164 153 160 158 164 161 158 154 152 154 155 153
354 5 15 17 15 6 1 4 358 5 317 267 246 253 218 213 214 195 194 200 205 201 193 191 187 182 174 151 170 161 168 160 168 165 162 168 165 162 164 159 155 157 157
332 11 5 9 12 18 10 358 5 10 31 18 17 0 252 227 219 210 196 202 203 205 202 195 189 186 173 161 175 174 167 159 175 167 168 173 170 165 168 163 158 160 159
297 333 349 355 9 9 10 16 5 6 356 15 6 15 27 320 234 219 217 205 199 197 200 190 187 169 174 187 173 178 179 172 172 170 177 177 179 171 167 169 166 162 163
264 267 257 294 337 343 1 347 348 354 351 337 2 341 274 179 343 264 216 207 204 198 200 197 181 172 179 189 196 189 182 188 183 168 181 184 180 179 177 171 172 167 169
269 282 330 342 341 348 344 334 317 316 308 320 322 316 253 263 272 341 308 220 214 207 202 196 179 178 182 187 191 197 191 185 186 183 182 189 187 183 180 177 174 173 170
349 351 356 341 357 347 328 316 313 299 295 280 280 291 307 281 254 167 245 307 215 214 207 203 182 176 177 183 193 189 192 190 185 188 187 189 186 190 184 182 178 181 176
35 6 344 349 335 327 317 308 299 289 279 276 255 240 259 272 263 223 262 275 288 217 208 211 188 181 187 189 194 189 187 192 186 193 190 195 195 187 195 185 182 185 181
6 336 322 317 307 302 304 303 298 293 281 273 276 263 250 250 253 241 215 225 270 280 215 199 201 188 185 193 195 196 187 188 192 190 198 199 197 190 187 195 187 185 185
316 317 297 309 312 311 307 293 278 281 280 269 263 262 266 259 252 252 227 220 207 261 273 215 200 191 194 191 170 156 142 130 127 122 212 199 199 194 185 191 186 189 188
311 337 336 335 327 312 316 312 302 298 299 289 279 271 269 265 252 255 263 257 225 209 237 269 236 194 186 166 135 86 24 63 151 159 153 290 198 190 183 184 188 188 191
334 326 323 322 315 312 312 304 293 292 287 288 284 276 270 268 264 259 255 253 234 227 227 238 251 234 185 167 181 151 188 235 260 167 168 164 266 1 232 185 185 189 187
314 324 331 324 313 312 310 301 297 294 288 285 280 275 266 265 261 257 255 250 242 224 229 227 238 260 196 183 192 169 163 213 138 179 200 167 232 213 313 269 189 189 187
310 316 313 315 309 305 308 301 295 289 289 285 286 282 277 265 260 263 263 254 246 238 230 224 211 227 281 192 200 203 111 137 188 159 222 244 170 215 187 299 273 182 186
288 292 301 306 304 301 297 288 288 285 282 287 284 282 278 274 267 262 262 264 255 239 234 220 212 211 223 261 206 185 178 152 148 140 162 182 271 177 161 220 222 273 168
309 319 312 308 305 305 301 297 289 284 285 281 279 282 278 272 265 257 253 252 253 252 250 241 229 216 230 236 237 207 194 190 189 180 132 169 207 216 185 172 192 160 253